Location: San Antonio
(29.4240°N, 98.4930°W)
Time: 02:36:26
(UTC-05:00)

ISS - Pass Details

Date: 21 June 2024
Orbit: 410 x 424 km, 51.6° (Epoch: 13 July)

Event Time Altitude Azimuth Distance (km) Brightness Sun altitude
Exits shadow 04:28:23 32° 100° (E) 735 -2.3 -22.8°
Drops below altitude 10° 04:30:47 10° 61° (ENE) 1,484 0.0 -22.5°
Sets 04:32:59 0° 53° (NE) 2,352 1.5 -22.1°
